Find Starlink 5553

NORAD ID: 56333 Int'l Des: 2023-058 Owner: SPXS Country: US Constellation: starlink operational
LEOCIRCULARRETROGRADESSO

当前视图

正在加载3D地球...

About Starlink 5553

Starlink 5553 (NORAD 56333) is a starlink constellation satellite (v1.5) launched Apr 27, 2023 by SPXS of US. It operates in LEO, CIRCULAR, RETROGRADE, SSO orbit with a mass of 300.00 kg.

即将过境

Passes for default location (London). Set your location on the main map for personalized predictions.

高度历史

Loading altitude history...

两行轨道根数

1 56333U 23058S 26228.16670139 -.00043241 00000-0 -13442-2 0 9993
2 56333 97.2854 225.4507 0001736 72.2568 241.7655 15.33457312 5761
Epoch: Aug 16, 2026 • Age: 7 hours

当前状态

高度 467.7 km
远地点 / 近地点 N/A
速度 7.63 km/s
星下点 22.89°N, 99.32°E
发射日期 Apr 27, 2023
运行时间 3.3 years
类型 internet

技术详情

分类 Payload
质量 300.00 kg
干质量 260.00 kg
总质量 300.00 kg
长度 0.20 m
直径 2.80 m
跨度 9.00 m
形状 Box + pan
制造商 SPXS
平台类型 Starlink
阶段状态 In Orbit
所有者/国家 SPXS/US

Most Searched